Year,Month,Day,Hour,Minute,Value (Times are PST for temperature in C)
2018,07,14,00,00,15.40
2018,07,14,00,01,15.40
2018,07,14,00,02,15.40
2018,07,14,00,03,15.40
2018,07,14,00,04,15.40
2018,07,14,00,05,15.40
2018,07,14,00,06,15.40
2018,07,14,00,07,15.40
2018,07,14,00,08,15.40
2018,07,14,00,09,15.40
2018,07,14,00,10,15.40
2018,07,14,00,11,15.40
2018,07,14,00,12,15.40
2018,07,14,00,13,15.40
2018,07,14,00,14,15.40
2018,07,14,00,15,15.40
2018,07,14,00,16,15.40
2018,07,14,00,17,15.30
2018,07,14,00,18,15.30
2018,07,14,00,19,15.30
2018,07,14,00,20,15.30
2018,07,14,00,21,15.30
2018,07,14,00,22,15.30
2018,07,14,00,23,15.30
2018,07,14,00,24,15.30
2018,07,14,00,25,15.30
2018,07,14,00,26,15.30
2018,07,14,00,27,15.20
2018,07,14,00,28,15.20
2018,07,14,00,29,15.20
2018,07,14,00,30,15.20
2018,07,14,00,31,15.20
2018,07,14,00,32,15.10
2018,07,14,00,33,15.10
2018,07,14,00,34,15.10
2018,07,14,00,35,15.10
2018,07,14,00,36,15.10
2018,07,14,00,37,15.00
2018,07,14,00,38,15.00
2018,07,14,00,39,14.90
2018,07,14,00,40,14.90
2018,07,14,00,41,14.90
2018,07,14,00,42,14.90
2018,07,14,00,43,14.80
2018,07,14,00,44,14.80
2018,07,14,00,45,14.80
2018,07,14,00,46,14.80
2018,07,14,00,47,14.80
2018,07,14,00,48,14.80
2018,07,14,00,49,14.70
2018,07,14,00,50,14.70
2018,07,14,00,51,14.70
2018,07,14,00,52,14.70
2018,07,14,00,53,14.70
2018,07,14,00,54,14.70
2018,07,14,00,55,14.70
2018,07,14,00,56,14.60
2018,07,14,00,57,14.60
2018,07,14,00,58,14.60
2018,07,14,00,59,14.60
2018,07,14,01,00,14.60
2018,07,14,01,01,14.60
2018,07,14,01,02,14.60
2018,07,14,01,03,14.60
2018,07,14,01,04,14.60
2018,07,14,01,05,14.50
2018,07,14,01,06,14.50
2018,07,14,01,07,14.50
2018,07,14,01,08,14.50
2018,07,14,01,09,14.50
2018,07,14,01,10,14.40
2018,07,14,01,11,14.40
2018,07,14,01,12,14.40
2018,07,14,01,13,14.40
2018,07,14,01,14,14.40
2018,07,14,01,15,14.40
2018,07,14,01,16,14.40
2018,07,14,01,17,14.50
2018,07,14,01,18,14.50
2018,07,14,01,19,14.50
2018,07,14,01,20,14.50
2018,07,14,01,21,14.50
2018,07,14,01,22,14.50
2018,07,14,01,23,14.50
2018,07,14,01,24,14.50
2018,07,14,01,25,14.50
2018,07,14,01,26,14.50
2018,07,14,01,27,14.50
2018,07,14,01,28,14.50
2018,07,14,01,29,14.50
2018,07,14,01,30,14.50
2018,07,14,01,31,14.60
2018,07,14,01,32,14.60
2018,07,14,01,33,14.60
2018,07,14,01,34,14.60
2018,07,14,01,35,14.60
2018,07,14,01,36,14.60
2018,07,14,01,37,14.60
2018,07,14,01,38,14.60
2018,07,14,01,39,14.60
2018,07,14,01,40,14.60
2018,07,14,01,41,14.60
2018,07,14,01,42,14.60
2018,07,14,01,43,14.60
2018,07,14,01,44,14.60
2018,07,14,01,45,14.60
2018,07,14,01,46,14.60
2018,07,14,01,47,14.60
2018,07,14,01,48,14.60
2018,07,14,01,49,14.60
2018,07,14,01,50,14.60
2018,07,14,01,51,14.60
2018,07,14,01,52,14.50
2018,07,14,01,53,14.50
2018,07,14,01,54,14.50
2018,07,14,01,55,14.50
2018,07,14,01,56,14.50
2018,07,14,01,57,14.50
2018,07,14,01,58,14.50
2018,07,14,01,59,14.50
2018,07,14,02,00,14.50
2018,07,14,02,01,14.50
2018,07,14,02,02,14.50
2018,07,14,02,03,14.50
2018,07,14,02,04,14.50
2018,07,14,02,05,14.50
2018,07,14,02,06,14.50
2018,07,14,02,07,14.40
2018,07,14,02,08,14.40
2018,07,14,02,09,14.50
2018,07,14,02,10,14.50
2018,07,14,02,11,14.40
2018,07,14,02,12,14.50
2018,07,14,02,13,14.50
2018,07,14,02,14,14.50
2018,07,14,02,15,14.50
2018,07,14,02,16,14.50
2018,07,14,02,17,14.50
2018,07,14,02,18,14.50
2018,07,14,02,19,14.50
2018,07,14,02,20,14.50
2018,07,14,02,21,14.50
2018,07,14,02,22,14.40
2018,07,14,02,23,14.40
2018,07,14,02,24,14.40
2018,07,14,02,25,14.40
2018,07,14,02,26,14.40
2018,07,14,02,27,14.40
2018,07,14,02,28,14.40
2018,07,14,02,29,14.40
2018,07,14,02,30,14.40
2018,07,14,02,31,14.40
2018,07,14,02,32,14.40
2018,07,14,02,33,14.40
2018,07,14,02,34,14.40
2018,07,14,02,35,14.30
2018,07,14,02,36,14.30
2018,07,14,02,37,14.30
2018,07,14,02,38,14.30
2018,07,14,02,39,14.30
2018,07,14,02,40,14.30
2018,07,14,02,41,14.30
2018,07,14,02,42,14.30
2018,07,14,02,43,14.30
2018,07,14,02,44,14.30
2018,07,14,02,45,14.30
2018,07,14,02,46,14.30
2018,07,14,02,47,14.30
2018,07,14,02,48,14.30
2018,07,14,02,49,14.30
2018,07,14,02,50,14.30
2018,07,14,02,51,14.30
2018,07,14,02,52,14.30
2018,07,14,02,53,14.30
2018,07,14,02,54,14.30
2018,07,14,02,55,14.30
2018,07,14,02,56,14.30
2018,07,14,02,57,14.20
2018,07,14,02,58,14.20
2018,07,14,02,59,14.20
2018,07,14,03,00,14.20
2018,07,14,03,01,14.10
2018,07,14,03,02,14.10
2018,07,14,03,03,14.10
2018,07,14,03,04,14.10
2018,07,14,03,05,14.20
2018,07,14,03,06,14.20
2018,07,14,03,07,14.30
2018,07,14,03,08,14.30
2018,07,14,03,09,14.30
2018,07,14,03,10,14.30
2018,07,14,03,11,14.30
2018,07,14,03,12,14.30
2018,07,14,03,13,14.40
2018,07,14,03,14,14.40
2018,07,14,03,15,14.40
2018,07,14,03,16,14.40
2018,07,14,03,17,14.40
2018,07,14,03,18,14.40
2018,07,14,03,19,14.50
2018,07,14,03,20,14.50
2018,07,14,03,21,14.50
2018,07,14,03,22,14.50
2018,07,14,03,23,14.50
2018,07,14,03,24,14.50
2018,07,14,03,25,14.50
2018,07,14,03,26,14.50
2018,07,14,03,27,14.50
2018,07,14,03,28,14.50
2018,07,14,03,29,14.50
2018,07,14,03,30,14.50
2018,07,14,03,31,14.50
2018,07,14,03,32,14.50
2018,07,14,03,33,14.50
2018,07,14,03,34,14.50
2018,07,14,03,35,14.50
2018,07,14,03,36,14.50
2018,07,14,03,37,14.50
2018,07,14,03,38,14.50
2018,07,14,03,39,14.50
2018,07,14,03,40,14.50
2018,07,14,03,41,14.50
2018,07,14,03,42,14.50
2018,07,14,03,43,14.50
2018,07,14,03,44,14.50
2018,07,14,03,45,14.50
2018,07,14,03,46,14.50
2018,07,14,03,47,14.50
2018,07,14,03,48,14.40
2018,07,14,03,49,14.40
2018,07,14,03,50,14.40
2018,07,14,03,51,14.40
2018,07,14,03,52,14.40
2018,07,14,03,53,14.30
2018,07,14,03,54,14.30
2018,07,14,03,55,14.30
2018,07,14,03,56,14.30
2018,07,14,03,57,14.30
2018,07,14,03,58,14.30
2018,07,14,03,59,14.30
2018,07,14,04,00,14.30
2018,07,14,04,01,14.30
2018,07,14,04,02,14.30
2018,07,14,04,03,14.30
2018,07,14,04,04,14.20
2018,07,14,04,05,14.20
2018,07,14,04,06,14.20
2018,07,14,04,07,14.20
2018,07,14,04,08,14.20
2018,07,14,04,09,14.20
2018,07,14,04,10,14.20
2018,07,14,04,11,14.20
2018,07,14,04,12,14.20
2018,07,14,04,13,14.20
2018,07,14,04,14,14.20
2018,07,14,04,15,14.20
2018,07,14,04,16,14.20
2018,07,14,04,17,14.20
2018,07,14,04,18,14.20
2018,07,14,04,19,14.20
2018,07,14,04,20,14.10
2018,07,14,04,21,14.10
2018,07,14,04,22,14.10
2018,07,14,04,23,14.10
2018,07,14,04,24,14.10
2018,07,14,04,25,14.10
2018,07,14,04,26,14.10
2018,07,14,04,27,14.10
2018,07,14,04,28,14.10
2018,07,14,04,29,14.10
2018,07,14,04,30,14.10
2018,07,14,04,31,14.10
2018,07,14,04,32,14.10
2018,07,14,04,33,14.10
2018,07,14,04,34,14.10
2018,07,14,04,35,14.00
2018,07,14,04,36,14.00
2018,07,14,04,37,14.00
2018,07,14,04,38,13.90
2018,07,14,04,39,13.90
2018,07,14,04,40,13.80
2018,07,14,04,41,13.80
2018,07,14,04,42,13.80
2018,07,14,04,43,13.80
2018,07,14,04,44,13.80
2018,07,14,04,45,13.80
2018,07,14,04,46,13.80
2018,07,14,04,47,13.80
2018,07,14,04,48,13.80
2018,07,14,04,49,13.80
2018,07,14,04,50,13.80
2018,07,14,04,51,13.80
2018,07,14,04,52,13.70
2018,07,14,04,53,13.70
2018,07,14,04,54,13.70
2018,07,14,04,55,13.70
2018,07,14,04,56,13.70
2018,07,14,04,57,13.70
2018,07,14,04,58,13.70
2018,07,14,04,59,13.60
2018,07,14,05,00,13.60
2018,07,14,05,01,13.60
2018,07,14,05,02,13.60
2018,07,14,05,03,13.60
2018,07,14,05,04,13.60
2018,07,14,05,05,13.60
2018,07,14,05,06,13.60
2018,07,14,05,07,13.50
2018,07,14,05,08,13.50
2018,07,14,05,09,13.50
2018,07,14,05,10,13.50
2018,07,14,05,11,13.50
2018,07,14,05,12,13.40
2018,07,14,05,13,13.40
2018,07,14,05,14,13.40
2018,07,14,05,15,13.40
2018,07,14,05,16,13.40
2018,07,14,05,17,13.30
2018,07,14,05,18,13.30
2018,07,14,05,19,13.30
2018,07,14,05,20,13.30
2018,07,14,05,21,13.30
2018,07,14,05,22,13.30
2018,07,14,05,23,13.30
2018,07,14,05,24,13.20
2018,07,14,05,25,13.20
2018,07,14,05,26,13.20
2018,07,14,05,27,13.20
2018,07,14,05,28,13.10
2018,07,14,05,29,13.10
2018,07,14,05,30,13.00
2018,07,14,05,31,13.00
2018,07,14,05,32,12.90
2018,07,14,05,33,12.90
2018,07,14,05,34,12.80
2018,07,14,05,35,12.80
2018,07,14,05,36,12.70
2018,07,14,05,37,12.70
2018,07,14,05,38,12.60
2018,07,14,05,39,12.50
2018,07,14,05,40,12.50
2018,07,14,05,41,12.40
2018,07,14,05,42,12.30
2018,07,14,05,43,12.30
2018,07,14,05,44,12.30
2018,07,14,05,45,12.20
2018,07,14,05,46,12.20
2018,07,14,05,47,12.20
2018,07,14,05,48,12.20
2018,07,14,05,49,12.10
2018,07,14,05,50,12.10
2018,07,14,05,51,12.10
2018,07,14,05,52,12.10
2018,07,14,05,53,12.00
2018,07,14,05,54,12.00
2018,07,14,05,55,11.90
2018,07,14,05,56,11.90
2018,07,14,05,57,11.90
2018,07,14,05,58,11.90
2018,07,14,05,59,11.90
2018,07,14,06,00,11.80
2018,07,14,06,01,11.80
2018,07,14,06,02,11.80
2018,07,14,06,03,11.80
2018,07,14,06,04,11.80
2018,07,14,06,05,11.80
2018,07,14,06,06,11.80
2018,07,14,06,07,11.70
2018,07,14,06,08,11.70
2018,07,14,06,09,11.70
2018,07,14,06,10,11.70
2018,07,14,06,11,11.70
2018,07,14,06,12,11.70
2018,07,14,06,13,11.80
2018,07,14,06,14,11.80
2018,07,14,06,15,11.80
2018,07,14,06,16,11.80
2018,07,14,06,17,11.80
2018,07,14,06,18,11.80
2018,07,14,06,19,11.90
2018,07,14,06,20,11.90
2018,07,14,06,21,11.90
2018,07,14,06,22,11.90
2018,07,14,06,23,12.00
2018,07,14,06,24,12.00
2018,07,14,06,25,12.00
2018,07,14,06,26,12.10
2018,07,14,06,27,12.10
2018,07,14,06,28,12.10
2018,07,14,06,29,12.20
2018,07,14,06,30,12.20
2018,07,14,06,31,12.30
2018,07,14,06,32,12.30
2018,07,14,06,33,12.40
2018,07,14,06,34,12.50
2018,07,14,06,35,12.50
2018,07,14,06,36,12.60
2018,07,14,06,37,12.70
2018,07,14,06,38,12.80
2018,07,14,06,39,12.80
2018,07,14,06,40,12.90
2018,07,14,06,41,12.90
2018,07,14,06,42,13.00
2018,07,14,06,43,13.10
2018,07,14,06,44,13.10
2018,07,14,06,45,13.20
2018,07,14,06,46,13.20
2018,07,14,06,47,13.30
2018,07,14,06,48,13.40
2018,07,14,06,49,13.40
2018,07,14,06,50,13.50
2018,07,14,06,51,13.60
2018,07,14,06,52,13.70
2018,07,14,06,53,13.70
2018,07,14,06,54,13.70
2018,07,14,06,55,13.80
2018,07,14,06,56,13.80
2018,07,14,06,57,13.90
2018,07,14,06,58,13.90
2018,07,14,06,59,13.90
2018,07,14,07,00,13.90
2018,07,14,07,01,13.90
2018,07,14,07,02,14.00
2018,07,14,07,03,14.00
2018,07,14,07,04,14.00
2018,07,14,07,05,14.10
2018,07,14,07,06,14.10
2018,07,14,07,07,14.10
2018,07,14,07,08,14.20
2018,07,14,07,09,14.20
2018,07,14,07,10,14.30
2018,07,14,07,11,14.30
2018,07,14,07,12,14.30
2018,07,14,07,13,14.40
2018,07,14,07,14,14.40
2018,07,14,07,15,14.40
2018,07,14,07,16,14.50
2018,07,14,07,17,14.50
2018,07,14,07,18,14.60
2018,07,14,07,19,14.60
2018,07,14,07,20,14.60
2018,07,14,07,21,14.60
2018,07,14,07,22,14.60
2018,07,14,07,23,14.60
2018,07,14,07,24,14.60
2018,07,14,07,25,14.60
2018,07,14,07,26,14.60
2018,07,14,07,27,14.70
2018,07,14,07,28,14.70
2018,07,14,07,29,14.70
2018,07,14,07,30,14.80
2018,07,14,07,31,14.80
2018,07,14,07,32,14.80
2018,07,14,07,33,14.80
2018,07,14,07,34,14.80
2018,07,14,07,35,14.90
2018,07,14,07,36,14.90
2018,07,14,07,37,14.90
2018,07,14,07,38,14.90
2018,07,14,07,39,15.00
2018,07,14,07,40,15.00
2018,07,14,07,41,15.10
2018,07,14,07,42,15.10
2018,07,14,07,43,15.20
2018,07,14,07,44,15.20
2018,07,14,07,45,15.30
2018,07,14,07,46,15.30
2018,07,14,07,47,15.30
2018,07,14,07,48,15.40
2018,07,14,07,49,15.40
2018,07,14,07,50,15.40
2018,07,14,07,51,15.40
2018,07,14,07,52,15.40
2018,07,14,07,53,15.40
2018,07,14,07,54,15.40
2018,07,14,07,55,15.40
2018,07,14,07,56,15.40
2018,07,14,07,57,15.40
2018,07,14,07,58,15.40
2018,07,14,07,59,15.50
2018,07,14,08,00,15.50
2018,07,14,08,01,15.50
2018,07,14,08,02,15.60
2018,07,14,08,03,15.60
2018,07,14,08,04,15.60
2018,07,14,08,05,15.70
2018,07,14,08,06,15.70
2018,07,14,08,07,15.70
2018,07,14,08,08,15.70
2018,07,14,08,09,15.70
2018,07,14,08,10,15.70
2018,07,14,08,11,15.70
2018,07,14,08,12,15.70
2018,07,14,08,13,15.80
2018,07,14,08,14,15.80
2018,07,14,08,15,15.80
2018,07,14,08,16,15.90
2018,07,14,08,17,15.90
2018,07,14,08,18,15.90
2018,07,14,08,19,15.90
2018,07,14,08,20,16.00
2018,07,14,08,21,16.00
2018,07,14,08,22,16.10
2018,07,14,08,23,16.10
2018,07,14,08,24,16.20
2018,07,14,08,25,16.20
2018,07,14,08,26,16.20
2018,07,14,08,27,16.20
2018,07,14,08,28,16.30
2018,07,14,08,29,16.30
2018,07,14,08,30,16.30
2018,07,14,08,31,16.30
2018,07,14,08,32,16.30
2018,07,14,08,33,16.30
2018,07,14,08,34,16.30
2018,07,14,08,35,16.30
2018,07,14,08,36,16.30
2018,07,14,08,37,16.30
2018,07,14,08,38,16.30
2018,07,14,08,39,16.30
2018,07,14,08,40,16.40
2018,07,14,08,41,16.40
2018,07,14,08,42,16.40
2018,07,14,08,43,16.50
2018,07,14,08,44,16.50
2018,07,14,08,45,16.60
2018,07,14,08,46,16.60
2018,07,14,08,47,16.70
2018,07,14,08,48,16.70
2018,07,14,08,49,16.70
2018,07,14,08,50,16.70
2018,07,14,08,51,16.80
2018,07,14,08,52,16.80
2018,07,14,08,53,16.90
2018,07,14,08,54,16.90
2018,07,14,08,55,16.90
2018,07,14,08,56,16.90
2018,07,14,08,57,17.00
2018,07,14,08,58,17.00
2018,07,14,08,59,17.10
2018,07,14,09,00,17.10
2018,07,14,09,01,17.10
2018,07,14,09,02,17.10
2018,07,14,09,03,17.10
2018,07,14,09,04,17.20
2018,07,14,09,05,17.20
2018,07,14,09,06,17.20
2018,07,14,09,07,17.30
2018,07,14,09,08,17.30
2018,07,14,09,09,17.30
2018,07,14,09,10,17.40
2018,07,14,09,11,17.40
2018,07,14,09,12,17.40
2018,07,14,09,13,17.50
2018,07,14,09,14,17.50
2018,07,14,09,15,17.50
2018,07,14,09,16,17.50
2018,07,14,09,17,17.50
2018,07,14,09,18,17.50
2018,07,14,09,19,17.50
2018,07,14,09,20,17.50
2018,07,14,09,21,17.50
2018,07,14,09,22,17.50
2018,07,14,09,23,17.50
2018,07,14,09,24,17.40
2018,07,14,09,25,17.40
2018,07,14,09,26,17.40
2018,07,14,09,27,17.40
2018,07,14,09,28,17.40
2018,07,14,09,29,17.40
2018,07,14,09,30,17.40
2018,07,14,09,31,17.40
2018,07,14,09,32,17.40
2018,07,14,09,33,17.40
2018,07,14,09,34,17.50
2018,07,14,09,35,17.50
2018,07,14,09,36,17.60
2018,07,14,09,37,17.60
2018,07,14,09,38,17.60
2018,07,14,09,39,17.60
2018,07,14,09,40,17.70
2018,07,14,09,41,17.70
2018,07,14,09,42,17.80
2018,07,14,09,43,17.80
2018,07,14,09,44,17.80
2018,07,14,09,45,17.80
2018,07,14,09,46,17.70
2018,07,14,09,47,17.80
2018,07,14,09,48,17.80
2018,07,14,09,49,17.80
2018,07,14,09,50,17.80
2018,07,14,09,51,17.90
2018,07,14,09,52,17.90
2018,07,14,09,53,17.80
2018,07,14,09,54,17.80
2018,07,14,09,55,17.80
2018,07,14,09,56,17.80
2018,07,14,09,57,17.80
2018,07,14,09,58,17.80
2018,07,14,09,59,17.80
2018,07,14,10,00,17.80
2018,07,14,10,01,17.80
2018,07,14,10,02,17.90
2018,07,14,10,03,18.00
2018,07,14,10,04,18.10
2018,07,14,10,05,18.20
2018,07,14,10,06,18.20
2018,07,14,10,07,18.30
2018,07,14,10,08,18.40
2018,07,14,10,09,18.40
2018,07,14,10,10,18.40
2018,07,14,10,11,18.50
2018,07,14,10,12,18.60
2018,07,14,10,13,18.60
2018,07,14,10,14,18.60
2018,07,14,10,15,18.60
2018,07,14,10,16,18.60
2018,07,14,10,17,18.70
2018,07,14,10,18,18.70
2018,07,14,10,19,18.70
2018,07,14,10,20,18.70
2018,07,14,10,21,18.70
2018,07,14,10,22,18.70
2018,07,14,10,23,18.70
2018,07,14,10,24,18.70
2018,07,14,10,25,18.70
2018,07,14,10,26,18.70
2018,07,14,10,27,18.70
2018,07,14,10,28,18.70
2018,07,14,10,29,18.70
2018,07,14,10,30,18.70
2018,07,14,10,31,18.70
2018,07,14,10,32,18.80
2018,07,14,10,33,18.80
2018,07,14,10,34,18.90
2018,07,14,10,35,19.00
2018,07,14,10,36,19.00
2018,07,14,10,37,19.00
2018,07,14,10,38,19.10
2018,07,14,10,39,19.10
2018,07,14,10,40,19.20
2018,07,14,10,41,19.20
2018,07,14,10,42,19.20
2018,07,14,10,43,19.30
2018,07,14,10,44,19.30
2018,07,14,10,45,19.40
2018,07,14,10,46,19.40
2018,07,14,10,47,19.50
2018,07,14,10,48,19.50
2018,07,14,10,49,19.60
2018,07,14,10,50,19.60
2018,07,14,10,51,19.60
2018,07,14,10,52,19.70
2018,07,14,10,53,19.70
2018,07,14,10,54,19.70
2018,07,14,10,55,19.70
2018,07,14,10,56,19.70
2018,07,14,10,57,19.70
2018,07,14,10,58,19.70
2018,07,14,10,59,19.60
2018,07,14,11,00,19.60
2018,07,14,11,01,19.60
2018,07,14,11,02,19.60
2018,07,14,11,03,19.60
2018,07,14,11,04,19.70
2018,07,14,11,05,19.70
2018,07,14,11,06,19.70
2018,07,14,11,07,19.80
2018,07,14,11,08,19.80
2018,07,14,11,09,19.80
2018,07,14,11,10,19.80
2018,07,14,11,11,19.80
2018,07,14,11,12,19.80
2018,07,14,11,13,19.80
2018,07,14,11,14,19.90
2018,07,14,11,15,19.90
2018,07,14,11,16,20.00
2018,07,14,11,17,20.10
2018,07,14,11,18,20.20
2018,07,14,11,19,20.20
2018,07,14,11,20,20.10
2018,07,14,11,21,20.20
2018,07,14,11,22,20.20
2018,07,14,11,23,20.20
2018,07,14,11,24,20.20
2018,07,14,11,25,20.20
2018,07,14,11,26,20.30
2018,07,14,11,27,20.30
2018,07,14,11,28,20.40
2018,07,14,11,29,20.50
2018,07,14,11,30,20.60
2018,07,14,11,31,20.70
2018,07,14,11,32,20.70
2018,07,14,11,33,20.70
2018,07,14,11,34,20.80
2018,07,14,11,35,20.80
2018,07,14,11,36,20.80
2018,07,14,11,37,20.80
2018,07,14,11,38,20.70
2018,07,14,11,39,20.80
2018,07,14,11,40,20.80
2018,07,14,11,41,20.80
2018,07,14,11,42,20.80
2018,07,14,11,43,20.80
2018,07,14,11,44,20.80
2018,07,14,11,45,20.70
2018,07,14,11,46,20.70
2018,07,14,11,47,20.70
2018,07,14,11,48,20.70
2018,07,14,11,49,20.80
2018,07,14,11,50,20.80
2018,07,14,11,51,20.90
2018,07,14,11,52,21.00
2018,07,14,11,53,21.00
2018,07,14,11,54,21.10
2018,07,14,11,55,21.10
2018,07,14,11,56,21.20
2018,07,14,11,57,21.20
2018,07,14,11,58,21.20
2018,07,14,11,59,21.30
2018,07,14,12,00,21.40
2018,07,14,12,01,21.40
2018,07,14,12,02,21.40
2018,07,14,12,03,21.40
2018,07,14,12,04,21.50
2018,07,14,12,05,21.50
2018,07,14,12,06,21.40
2018,07,14,12,07,21.40
2018,07,14,12,08,21.40
2018,07,14,12,09,21.30
2018,07,14,12,10,21.30
2018,07,14,12,11,21.20
2018,07,14,12,12,21.20
2018,07,14,12,13,21.20
2018,07,14,12,14,21.20
2018,07,14,12,15,21.30
2018,07,14,12,16,21.30
2018,07,14,12,17,21.30
2018,07,14,12,18,21.40
2018,07,14,12,19,21.40
2018,07,14,12,20,21.50
2018,07,14,12,21,21.50
2018,07,14,12,22,21.40
2018,07,14,12,23,21.40
2018,07,14,12,24,21.40
2018,07,14,12,25,21.40
2018,07,14,12,26,21.40
2018,07,14,12,27,21.40
2018,07,14,12,28,21.50
2018,07,14,12,29,21.60
2018,07,14,12,30,21.60
2018,07,14,12,31,21.70
2018,07,14,12,32,21.70
2018,07,14,12,33,21.70
2018,07,14,12,34,21.70
2018,07,14,12,35,21.70
2018,07,14,12,36,21.70
2018,07,14,12,37,21.80
2018,07,14,12,38,21.80
2018,07,14,12,39,21.90
2018,07,14,12,40,22.00
2018,07,14,12,41,22.10
2018,07,14,12,42,22.10
2018,07,14,12,43,22.10
2018,07,14,12,44,22.10
2018,07,14,12,45,22.10
2018,07,14,12,46,22.20
2018,07,14,12,47,22.20
2018,07,14,12,48,22.30
2018,07,14,12,49,22.30
2018,07,14,12,50,22.40
2018,07,14,12,51,22.60
2018,07,14,12,52,22.70
2018,07,14,12,53,22.70
2018,07,14,12,54,22.80
2018,07,14,12,55,22.80
2018,07,14,12,56,22.80
2018,07,14,12,57,22.80
2018,07,14,12,58,22.80
2018,07,14,12,59,22.80
2018,07,14,13,00,22.80
2018,07,14,13,01,22.80
2018,07,14,13,02,22.70
2018,07,14,13,03,22.80
2018,07,14,13,04,22.80
2018,07,14,13,05,22.90
2018,07,14,13,06,23.00
2018,07,14,13,07,23.10
2018,07,14,13,08,23.20
2018,07,14,13,09,23.20
2018,07,14,13,10,23.30
2018,07,14,13,11,23.40
2018,07,14,13,12,23.40
2018,07,14,13,13,23.50
2018,07,14,13,14,23.60
2018,07,14,13,15,23.60
2018,07,14,13,16,23.60
2018,07,14,13,17,23.60
2018,07,14,13,18,23.60
2018,07,14,13,19,23.70
2018,07,14,13,20,23.60
2018,07,14,13,21,23.60
2018,07,14,13,22,23.50
2018,07,14,13,23,23.50
2018,07,14,13,24,23.50
2018,07,14,13,25,23.50
2018,07,14,13,26,23.40
2018,07,14,13,27,23.40
2018,07,14,13,28,23.50
2018,07,14,13,29,23.50
2018,07,14,13,30,23.60
2018,07,14,13,31,23.60
2018,07,14,13,32,23.60
2018,07,14,13,33,23.60
2018,07,14,13,34,23.60
2018,07,14,13,35,23.70
2018,07,14,13,36,23.70
2018,07,14,13,37,23.70
2018,07,14,13,38,23.70
2018,07,14,13,39,23.70
2018,07,14,13,40,23.70
2018,07,14,13,41,23.70
2018,07,14,13,42,23.70
2018,07,14,13,43,23.70
2018,07,14,13,44,23.70
2018,07,14,13,45,23.80
2018,07,14,13,46,23.80
2018,07,14,13,47,23.90
2018,07,14,13,48,24.00
2018,07,14,13,49,24.10
2018,07,14,13,50,24.20
2018,07,14,13,51,24.20
2018,07,14,13,52,24.30
2018,07,14,13,53,24.30
2018,07,14,13,54,24.40
2018,07,14,13,55,24.50
2018,07,14,13,56,24.50
2018,07,14,13,57,24.60
2018,07,14,13,58,24.70
2018,07,14,13,59,24.70
2018,07,14,14,00,24.70
2018,07,14,14,01,24.70
2018,07,14,14,02,24.60
2018,07,14,14,03,24.60
2018,07,14,14,04,24.50
2018,07,14,14,05,24.50
2018,07,14,14,06,24.50
2018,07,14,14,07,24.40
2018,07,14,14,08,24.30
2018,07,14,14,09,24.30
2018,07,14,14,10,24.20
2018,07,14,14,11,24.20
2018,07,14,14,12,24.20
2018,07,14,14,13,24.20
2018,07,14,14,14,24.20
2018,07,14,14,15,24.20
2018,07,14,14,16,24.30
2018,07,14,14,17,24.30
2018,07,14,14,18,24.40
2018,07,14,14,19,24.40
2018,07,14,14,20,24.40
2018,07,14,14,21,24.30
2018,07,14,14,22,24.30
2018,07,14,14,23,24.20
2018,07,14,14,24,24.20
2018,07,14,14,25,24.30
2018,07,14,14,26,24.40
2018,07,14,14,27,24.50
2018,07,14,14,28,24.50
2018,07,14,14,29,24.60
2018,07,14,14,30,24.60
2018,07,14,14,31,24.70
2018,07,14,14,32,24.70
2018,07,14,14,33,24.70
2018,07,14,14,34,24.70
2018,07,14,14,35,24.70
2018,07,14,14,36,24.80
2018,07,14,14,37,24.80
2018,07,14,14,38,24.90
2018,07,14,14,39,25.00
2018,07,14,14,40,25.10
2018,07,14,14,41,25.10
2018,07,14,14,42,25.10
2018,07,14,14,43,25.10
2018,07,14,14,44,25.10
2018,07,14,14,45,25.00
2018,07,14,14,46,25.00
2018,07,14,14,47,24.90
2018,07,14,14,48,24.90
2018,07,14,14,49,24.90
2018,07,14,14,50,25.00
2018,07,14,14,51,25.00
2018,07,14,14,52,25.10
2018,07,14,14,53,25.20
2018,07,14,14,54,25.20
2018,07,14,14,55,25.20
2018,07,14,14,56,25.20
2018,07,14,14,57,25.20
2018,07,14,14,58,25.20
2018,07,14,14,59,25.20
2018,07,14,15,00,25.20
2018,07,14,15,01,25.30
2018,07,14,15,02,25.30
2018,07,14,15,03,25.40
2018,07,14,15,04,25.40
2018,07,14,15,05,25.40
2018,07,14,15,06,25.30
2018,07,14,15,07,25.30
2018,07,14,15,08,25.20
2018,07,14,15,09,25.20
2018,07,14,15,10,25.10
2018,07,14,15,11,25.20
2018,07,14,15,12,25.20
2018,07,14,15,13,25.30
2018,07,14,15,14,25.40
2018,07,14,15,15,25.40
2018,07,14,15,16,25.50
2018,07,14,15,17,25.60
2018,07,14,15,18,25.60
2018,07,14,15,19,25.70
2018,07,14,15,20,25.80
2018,07,14,15,21,25.80
2018,07,14,15,22,25.80
2018,07,14,15,23,25.80
2018,07,14,15,24,25.80
2018,07,14,15,25,25.70
2018,07,14,15,26,25.60
2018,07,14,15,27,25.60
2018,07,14,15,28,25.50
2018,07,14,15,29,25.50
2018,07,14,15,30,25.40
2018,07,14,15,31,25.40
2018,07,14,15,32,25.40
2018,07,14,15,33,25.30
2018,07,14,15,34,25.30
2018,07,14,15,35,25.30
2018,07,14,15,36,25.20
2018,07,14,15,37,25.10
2018,07,14,15,38,25.10
2018,07,14,15,39,25.00
2018,07,14,15,40,24.90
2018,07,14,15,41,24.90
2018,07,14,15,42,24.80
2018,07,14,15,43,24.80
2018,07,14,15,44,24.80
2018,07,14,15,45,24.70
2018,07,14,15,46,24.70
2018,07,14,15,47,24.60
2018,07,14,15,48,24.60
2018,07,14,15,49,24.60
2018,07,14,15,50,24.50
2018,07,14,15,51,24.50
2018,07,14,15,52,24.60
2018,07,14,15,53,24.60
2018,07,14,15,54,24.70
2018,07,14,15,55,24.80
2018,07,14,15,56,24.90
2018,07,14,15,57,25.00
2018,07,14,15,58,25.10
2018,07,14,15,59,25.20
2018,07,14,16,00,25.20
2018,07,14,16,01,25.30
2018,07,14,16,02,25.40
2018,07,14,16,03,25.50
2018,07,14,16,04,25.60
2018,07,14,16,05,25.70
2018,07,14,16,06,25.70
2018,07,14,16,07,25.80
2018,07,14,16,08,25.80
2018,07,14,16,09,25.80
2018,07,14,16,10,25.80
2018,07,14,16,11,25.80
2018,07,14,16,12,25.80
2018,07,14,16,13,25.80
2018,07,14,16,14,25.80
2018,07,14,16,15,25.80
2018,07,14,16,16,25.90
2018,07,14,16,17,25.90
2018,07,14,16,18,26.00
2018,07,14,16,19,26.00
2018,07,14,16,20,26.10
2018,07,14,16,21,26.10
2018,07,14,16,22,26.20
2018,07,14,16,23,26.20
2018,07,14,16,24,26.20
2018,07,14,16,25,26.20
2018,07,14,16,26,26.20
2018,07,14,16,27,26.20
2018,07,14,16,28,26.20
2018,07,14,16,29,26.20
2018,07,14,16,30,26.10
2018,07,14,16,31,26.20
2018,07,14,16,32,26.20
2018,07,14,16,33,26.20
2018,07,14,16,34,26.30
2018,07,14,16,35,26.30
2018,07,14,16,36,26.30
2018,07,14,16,37,26.30
2018,07,14,16,38,26.40
2018,07,14,16,39,26.50
2018,07,14,16,40,26.60
2018,07,14,16,41,26.70
2018,07,14,16,42,26.70
2018,07,14,16,43,26.80
2018,07,14,16,44,26.80
2018,07,14,16,45,26.80
2018,07,14,16,46,26.80
2018,07,14,16,47,26.90
2018,07,14,16,48,26.90
2018,07,14,16,49,26.90
2018,07,14,16,50,26.90
2018,07,14,16,51,26.90
2018,07,14,16,52,26.90
2018,07,14,16,53,26.90
2018,07,14,16,54,26.90
2018,07,14,16,55,27.00
2018,07,14,16,56,27.00
2018,07,14,16,57,27.10
2018,07,14,16,58,27.10
2018,07,14,16,59,27.10
2018,07,14,17,00,27.10
2018,07,14,17,01,27.10
2018,07,14,17,02,27.20
2018,07,14,17,03,27.30
2018,07,14,17,04,27.30
2018,07,14,17,05,27.40
2018,07,14,17,06,27.40
2018,07,14,17,07,27.30
2018,07,14,17,08,27.30
2018,07,14,17,09,27.30
2018,07,14,17,10,27.20
2018,07,14,17,11,27.10
2018,07,14,17,12,27.10
2018,07,14,17,13,27.10
2018,07,14,17,14,27.10
2018,07,14,17,15,27.10
2018,07,14,17,16,27.20
2018,07,14,17,17,27.20
2018,07,14,17,18,27.30
2018,07,14,17,19,27.40